Year,Month,Day,Hour,Minute,Value (Times are PST for temperature in C)
2021,06,28,00,00,27.90
2021,06,28,00,01,27.90
2021,06,28,00,02,27.90
2021,06,28,00,03,27.90
2021,06,28,00,04,27.90
2021,06,28,00,05,27.90
2021,06,28,00,06,27.80
2021,06,28,00,07,27.80
2021,06,28,00,08,27.80
2021,06,28,00,09,27.80
2021,06,28,00,10,27.80
2021,06,28,00,11,27.80
2021,06,28,00,12,27.80
2021,06,28,00,13,27.80
2021,06,28,00,14,27.70
2021,06,28,00,15,27.70
2021,06,28,00,16,27.70
2021,06,28,00,17,27.70
2021,06,28,00,18,27.60
2021,06,28,00,19,27.60
2021,06,28,00,20,27.60
2021,06,28,00,21,27.60
2021,06,28,00,22,27.60
2021,06,28,00,23,27.50
2021,06,28,00,24,27.50
2021,06,28,00,25,27.50
2021,06,28,00,26,27.40
2021,06,28,00,27,27.40
2021,06,28,00,28,27.40
2021,06,28,00,29,27.40
2021,06,28,00,30,27.40
2021,06,28,00,31,27.40
2021,06,28,00,32,27.30
2021,06,28,00,33,27.30
2021,06,28,00,34,27.30
2021,06,28,00,35,27.30
2021,06,28,00,36,27.20
2021,06,28,00,37,27.20
2021,06,28,00,38,27.20
2021,06,28,00,39,27.20
2021,06,28,00,40,27.20
2021,06,28,00,41,27.10
2021,06,28,00,42,27.10
2021,06,28,00,43,27.10
2021,06,28,00,44,27.10
2021,06,28,00,45,27.10
2021,06,28,00,46,27.00
2021,06,28,00,47,27.00
2021,06,28,00,48,27.00
2021,06,28,00,49,27.00
2021,06,28,00,50,26.90
2021,06,28,00,51,26.90
2021,06,28,00,52,26.90
2021,06,28,00,53,26.90
2021,06,28,00,54,26.90
2021,06,28,00,55,26.90
2021,06,28,00,56,26.90
2021,06,28,00,57,26.80
2021,06,28,00,58,26.80
2021,06,28,00,59,26.80
2021,06,28,01,00,26.80
2021,06,28,01,01,26.80
2021,06,28,01,02,26.80
2021,06,28,01,03,26.80
2021,06,28,01,04,26.80
2021,06,28,01,05,26.70
2021,06,28,01,06,26.70
2021,06,28,01,07,26.70
2021,06,28,01,08,26.70
2021,06,28,01,09,26.70
2021,06,28,01,10,26.70
2021,06,28,01,11,26.70
2021,06,28,01,12,26.60
2021,06,28,01,13,26.60
2021,06,28,01,14,26.60
2021,06,28,01,15,26.60
2021,06,28,01,16,26.60
2021,06,28,01,17,26.60
2021,06,28,01,18,26.60
2021,06,28,01,19,26.60
2021,06,28,01,20,26.60
2021,06,28,01,21,26.50
2021,06,28,01,22,26.50
2021,06,28,01,23,26.50
2021,06,28,01,24,26.50
2021,06,28,01,25,26.50
2021,06,28,01,26,26.50
2021,06,28,01,27,26.40
2021,06,28,01,28,26.40
2021,06,28,01,29,26.40
2021,06,28,01,30,26.40
2021,06,28,01,31,26.40
2021,06,28,01,32,26.40
2021,06,28,01,33,26.40
2021,06,28,01,34,26.40
2021,06,28,01,35,26.40
2021,06,28,01,36,26.40
2021,06,28,01,37,26.30
2021,06,28,01,38,26.30
2021,06,28,01,39,26.30
2021,06,28,01,40,26.30
2021,06,28,01,41,26.30
2021,06,28,01,42,26.30
2021,06,28,01,43,26.30
2021,06,28,01,44,26.30
2021,06,28,01,45,26.30
2021,06,28,01,46,26.30
2021,06,28,01,47,26.20
2021,06,28,01,48,26.20
2021,06,28,01,49,26.20
2021,06,28,01,50,26.20
2021,06,28,01,51,26.20
2021,06,28,01,52,26.20
2021,06,28,01,53,26.20
2021,06,28,01,54,26.20
2021,06,28,01,55,26.10
2021,06,28,01,56,26.10
2021,06,28,01,57,26.10
2021,06,28,01,58,26.10
2021,06,28,01,59,26.10
2021,06,28,02,00,26.10
2021,06,28,02,01,26.10
2021,06,28,02,02,26.00
2021,06,28,02,03,26.00
2021,06,28,02,04,26.00
2021,06,28,02,05,26.00
2021,06,28,02,06,25.90
2021,06,28,02,07,25.90
2021,06,28,02,08,25.90
2021,06,28,02,09,25.90
2021,06,28,02,10,25.90
2021,06,28,02,11,25.90
2021,06,28,02,12,25.90
2021,06,28,02,13,25.90
2021,06,28,02,14,25.90
2021,06,28,02,15,25.80
2021,06,28,02,16,25.80
2021,06,28,02,17,25.80
2021,06,28,02,18,25.80
2021,06,28,02,19,25.80
2021,06,28,02,20,25.80
2021,06,28,02,21,25.80
2021,06,28,02,22,25.80
2021,06,28,02,23,25.80
2021,06,28,02,24,25.70
2021,06,28,02,25,25.70
2021,06,28,02,26,25.70
2021,06,28,02,27,25.70
2021,06,28,02,28,25.70
2021,06,28,02,29,25.70
2021,06,28,02,30,25.70
2021,06,28,02,31,25.70
2021,06,28,02,32,25.70
2021,06,28,02,33,25.60
2021,06,28,02,34,25.60
2021,06,28,02,35,25.70
2021,06,28,02,36,25.70
2021,06,28,02,37,25.70
2021,06,28,02,38,25.70
2021,06,28,02,39,25.70
2021,06,28,02,40,25.70
2021,06,28,02,41,25.70
2021,06,28,02,42,25.70
2021,06,28,02,43,25.70
2021,06,28,02,44,25.70
2021,06,28,02,45,25.70
2021,06,28,02,46,25.70
2021,06,28,02,47,25.70
2021,06,28,02,48,25.70
2021,06,28,02,49,25.70
2021,06,28,02,50,25.70
2021,06,28,02,51,25.70
2021,06,28,02,52,25.70
2021,06,28,02,53,25.70
2021,06,28,02,54,25.70
2021,06,28,02,55,25.70
2021,06,28,02,56,25.70
2021,06,28,02,57,25.70
2021,06,28,02,58,25.60
2021,06,28,02,59,25.70
2021,06,28,03,00,25.60
2021,06,28,03,01,25.60
2021,06,28,03,02,25.70
2021,06,28,03,03,25.70
2021,06,28,03,04,25.70
2021,06,28,03,05,25.60
2021,06,28,03,06,25.60
2021,06,28,03,07,25.60
2021,06,28,03,08,25.60
2021,06,28,03,09,25.60
2021,06,28,03,10,25.60
2021,06,28,03,11,25.60
2021,06,28,03,12,25.60
2021,06,28,03,13,25.60
2021,06,28,03,14,25.60
2021,06,28,03,15,25.60
2021,06,28,03,16,25.60
2021,06,28,03,17,25.60
2021,06,28,03,18,25.60
2021,06,28,03,19,25.50
2021,06,28,03,20,25.50
2021,06,28,03,21,25.50
2021,06,28,03,22,25.50
2021,06,28,03,23,25.50
2021,06,28,03,24,25.50
2021,06,28,03,25,25.50
2021,06,28,03,26,25.50
2021,06,28,03,27,25.50
2021,06,28,03,28,25.40
2021,06,28,03,29,25.40
2021,06,28,03,30,25.50
2021,06,28,03,31,25.40
2021,06,28,03,32,25.40
2021,06,28,03,33,25.40
2021,06,28,03,34,25.40
2021,06,28,03,35,25.40
2021,06,28,03,36,25.40
2021,06,28,03,37,25.40
2021,06,28,03,38,25.40
2021,06,28,03,39,25.40
2021,06,28,03,40,25.40
2021,06,28,03,41,25.40
2021,06,28,03,42,25.40
2021,06,28,03,43,25.40
2021,06,28,03,44,25.40
2021,06,28,03,45,25.40
2021,06,28,03,46,25.40
2021,06,28,03,47,25.30
2021,06,28,03,48,25.30
2021,06,28,03,49,25.30
2021,06,28,03,50,25.30
2021,06,28,03,51,25.30
2021,06,28,03,52,25.30
2021,06,28,03,53,25.30
2021,06,28,03,54,25.30
2021,06,28,03,55,25.30
2021,06,28,03,56,25.30
2021,06,28,03,57,25.30
2021,06,28,03,58,25.30
2021,06,28,03,59,25.30
2021,06,28,04,00,25.30
2021,06,28,04,01,25.30
2021,06,28,04,02,25.30
2021,06,28,04,03,25.30
2021,06,28,04,04,25.30
2021,06,28,04,05,25.30
2021,06,28,04,06,25.20
2021,06,28,04,07,25.20
2021,06,28,04,08,25.20
2021,06,28,04,09,25.20
2021,06,28,04,10,25.20
2021,06,28,04,11,25.20
2021,06,28,04,12,25.20
2021,06,28,04,13,25.20
2021,06,28,04,14,25.20
2021,06,28,04,15,25.20
2021,06,28,04,16,25.10
2021,06,28,04,17,25.10
2021,06,28,04,18,25.10
2021,06,28,04,19,25.10
2021,06,28,04,20,25.10
2021,06,28,04,21,25.10
2021,06,28,04,22,25.10
2021,06,28,04,23,25.00
2021,06,28,04,24,25.00
2021,06,28,04,25,25.00
2021,06,28,04,26,25.00
2021,06,28,04,27,24.90
2021,06,28,04,28,24.90
2021,06,28,04,29,24.90
2021,06,28,04,30,24.90
2021,06,28,04,31,24.90
2021,06,28,04,32,24.80
2021,06,28,04,33,24.80
2021,06,28,04,34,24.80
2021,06,28,04,35,24.80
2021,06,28,04,36,24.80
2021,06,28,04,37,24.80
2021,06,28,04,38,24.80
2021,06,28,04,39,24.70
2021,06,28,04,40,24.70
2021,06,28,04,41,24.70
2021,06,28,04,42,24.70
2021,06,28,04,43,24.70
2021,06,28,04,44,24.70
2021,06,28,04,45,24.70
2021,06,28,04,46,24.70
2021,06,28,04,47,24.60
2021,06,28,04,48,24.60
2021,06,28,04,49,24.60
2021,06,28,04,50,24.60
2021,06,28,04,51,24.60
2021,06,28,04,52,24.60
2021,06,28,04,53,24.60
2021,06,28,04,54,24.60
2021,06,28,04,55,24.60
2021,06,28,04,56,24.60
2021,06,28,04,57,24.60
2021,06,28,04,58,24.50
2021,06,28,04,59,24.50
2021,06,28,05,00,24.50
2021,06,28,05,01,24.50
2021,06,28,05,02,24.50
2021,06,28,05,03,24.50
2021,06,28,05,04,24.40
2021,06,28,05,05,24.40
2021,06,28,05,06,24.40
2021,06,28,05,07,24.40
2021,06,28,05,08,24.40
2021,06,28,05,09,24.30
2021,06,28,05,10,24.30
2021,06,28,05,11,24.30
2021,06,28,05,12,24.30
2021,06,28,05,13,24.30
2021,06,28,05,14,24.30
2021,06,28,05,15,24.20
2021,06,28,05,16,24.20
2021,06,28,05,17,24.20
2021,06,28,05,18,24.20
2021,06,28,05,19,24.20
2021,06,28,05,20,24.10
2021,06,28,05,21,24.20
2021,06,28,05,22,24.10
2021,06,28,05,23,24.10
2021,06,28,05,24,24.10
2021,06,28,05,25,24.10
2021,06,28,05,26,24.10
2021,06,28,05,27,24.10
2021,06,28,05,28,24.10
2021,06,28,05,29,24.00
2021,06,28,05,30,24.10
2021,06,28,05,31,24.00
2021,06,28,05,32,24.00
2021,06,28,05,33,24.00
2021,06,28,05,34,24.00
2021,06,28,05,35,24.00
2021,06,28,05,36,24.00
2021,06,28,05,37,24.00
2021,06,28,05,38,24.00
2021,06,28,05,39,24.00
2021,06,28,05,40,24.00
2021,06,28,05,41,24.00
2021,06,28,05,42,24.00
2021,06,28,05,43,24.00
2021,06,28,05,44,24.00
2021,06,28,05,45,24.00
2021,06,28,05,46,24.00
2021,06,28,05,47,24.00
2021,06,28,05,48,24.00
2021,06,28,05,49,24.10
2021,06,28,05,50,24.10
2021,06,28,05,51,24.10
2021,06,28,05,52,24.10
2021,06,28,05,53,24.10
2021,06,28,05,54,24.10
2021,06,28,05,55,24.10
2021,06,28,05,56,24.20
2021,06,28,05,57,24.20
2021,06,28,05,58,24.20
2021,06,28,05,59,24.20
2021,06,28,06,00,24.30
2021,06,28,06,01,24.30
2021,06,28,06,02,24.30
2021,06,28,06,03,24.30
2021,06,28,06,04,24.30
2021,06,28,06,05,24.30
2021,06,28,06,06,24.30
2021,06,28,06,07,24.30
2021,06,28,06,08,24.30
2021,06,28,06,09,24.40
2021,06,28,06,10,24.40
2021,06,28,06,11,24.40
2021,06,28,06,12,24.40
2021,06,28,06,13,24.40
2021,06,28,06,14,24.50
2021,06,28,06,15,24.50
2021,06,28,06,16,24.50
2021,06,28,06,17,24.50
2021,06,28,06,18,24.60
2021,06,28,06,19,24.60
2021,06,28,06,20,24.60
2021,06,28,06,21,24.70
2021,06,28,06,22,24.70
2021,06,28,06,23,24.80
2021,06,28,06,24,24.80
2021,06,28,06,25,24.90
2021,06,28,06,26,25.00
2021,06,28,06,27,25.00
2021,06,28,06,28,25.10
2021,06,28,06,29,25.10
2021,06,28,06,30,25.10
2021,06,28,06,31,25.20
2021,06,28,06,32,25.20
2021,06,28,06,33,25.20
2021,06,28,06,34,25.30
2021,06,28,06,35,25.30
2021,06,28,06,36,25.30
2021,06,28,06,37,25.30
2021,06,28,06,38,25.40
2021,06,28,06,39,25.40
2021,06,28,06,40,25.40
2021,06,28,06,41,25.40
2021,06,28,06,42,25.50
2021,06,28,06,43,25.50
2021,06,28,06,44,25.50
2021,06,28,06,45,25.60
2021,06,28,06,46,25.60
2021,06,28,06,47,25.60
2021,06,28,06,48,25.60
2021,06,28,06,49,25.60
2021,06,28,06,50,25.60
2021,06,28,06,51,25.60
2021,06,28,06,52,25.60
2021,06,28,06,53,25.60
2021,06,28,06,54,25.60
2021,06,28,06,55,25.60
2021,06,28,06,56,25.60
2021,06,28,06,57,25.60
2021,06,28,06,58,25.60
2021,06,28,06,59,25.60
2021,06,28,07,00,25.60
2021,06,28,07,01,25.60
2021,06,28,07,02,25.60
2021,06,28,07,03,25.60
2021,06,28,07,04,25.60
2021,06,28,07,05,25.60
2021,06,28,07,06,25.60
2021,06,28,07,07,25.60
2021,06,28,07,08,25.60
2021,06,28,07,09,25.60
2021,06,28,07,10,25.60
2021,06,28,07,11,25.70
2021,06,28,07,12,25.70
2021,06,28,07,13,25.70
2021,06,28,07,14,25.70
2021,06,28,07,15,25.70
2021,06,28,07,16,25.70
2021,06,28,07,17,25.70
2021,06,28,07,18,25.60
2021,06,28,07,19,25.60
2021,06,28,07,20,25.60
2021,06,28,07,21,25.60
2021,06,28,07,22,25.60
2021,06,28,07,23,25.60
2021,06,28,07,24,25.60
2021,06,28,07,25,25.50
2021,06,28,07,26,25.50
2021,06,28,07,27,25.50
2021,06,28,07,28,25.50
2021,06,28,07,29,25.50
2021,06,28,07,30,25.40
2021,06,28,07,31,25.40
2021,06,28,07,32,25.40
2021,06,28,07,33,25.40
2021,06,28,07,34,25.40
2021,06,28,07,35,25.30
2021,06,28,07,36,25.30
2021,06,28,07,37,25.30
2021,06,28,07,38,25.30
2021,06,28,07,39,25.30
2021,06,28,07,40,25.30
2021,06,28,07,41,25.30
2021,06,28,07,42,25.30
2021,06,28,07,43,25.30
2021,06,28,07,44,25.30
2021,06,28,07,45,25.20
2021,06,28,07,46,25.20
2021,06,28,07,47,25.20
2021,06,28,07,48,25.20
2021,06,28,07,49,25.20
2021,06,28,07,50,25.20
2021,06,28,07,51,25.20
2021,06,28,07,52,25.20
2021,06,28,07,53,25.20
2021,06,28,07,54,25.20
2021,06,28,07,55,25.20
2021,06,28,07,56,25.20
2021,06,28,07,57,25.20
2021,06,28,07,58,25.20
2021,06,28,07,59,25.20
2021,06,28,08,00,25.20
2021,06,28,08,01,25.20
2021,06,28,08,02,25.20
2021,06,28,08,03,25.20
2021,06,28,08,04,25.20
2021,06,28,08,05,25.20
2021,06,28,08,06,25.20
2021,06,28,08,07,25.20
2021,06,28,08,08,25.20
2021,06,28,08,09,25.20
2021,06,28,08,10,25.20
2021,06,28,08,11,25.20
2021,06,28,08,12,25.20
2021,06,28,08,13,25.20
2021,06,28,08,14,25.20
2021,06,28,08,15,25.30
2021,06,28,08,16,25.30
2021,06,28,08,17,25.30
2021,06,28,08,18,25.30
2021,06,28,08,19,25.30
2021,06,28,08,20,25.30
2021,06,28,08,21,25.30
2021,06,28,08,22,25.30
2021,06,28,08,23,25.40
2021,06,28,08,24,25.40
2021,06,28,08,25,25.40
2021,06,28,08,26,25.40
2021,06,28,08,27,25.40
2021,06,28,08,28,25.50
2021,06,28,08,29,25.50
2021,06,28,08,30,25.60
2021,06,28,08,31,25.60
2021,06,28,08,32,25.60
2021,06,28,08,33,25.70
2021,06,28,08,34,25.70
2021,06,28,08,35,25.70
2021,06,28,08,36,25.70
2021,06,28,08,37,25.70
2021,06,28,08,38,25.70
2021,06,28,08,39,25.70
2021,06,28,08,40,25.70
2021,06,28,08,41,25.80
2021,06,28,08,42,25.80
2021,06,28,08,43,25.80
2021,06,28,08,44,25.80
2021,06,28,08,45,25.80
2021,06,28,08,46,25.80
2021,06,28,08,47,25.90
2021,06,28,08,48,25.90
2021,06,28,08,49,25.90
2021,06,28,08,50,25.90
2021,06,28,08,51,25.90
2021,06,28,08,52,25.90
2021,06,28,08,53,25.90
2021,06,28,08,54,25.90
2021,06,28,08,55,26.00
2021,06,28,08,56,26.00
2021,06,28,08,57,26.00
2021,06,28,08,58,26.10
2021,06,28,08,59,26.10
2021,06,28,09,00,26.10
2021,06,28,09,01,26.10
2021,06,28,09,02,26.10
2021,06,28,09,03,26.20
2021,06,28,09,04,26.20
2021,06,28,09,05,26.20
2021,06,28,09,06,26.20
2021,06,28,09,07,26.30
2021,06,28,09,08,26.30
2021,06,28,09,09,26.30
2021,06,28,09,10,26.30
2021,06,28,09,11,26.40
2021,06,28,09,12,26.40
2021,06,28,09,13,26.40
2021,06,28,09,14,26.40
2021,06,28,09,15,26.40
2021,06,28,09,16,26.40
2021,06,28,09,17,26.50
2021,06,28,09,18,26.50
2021,06,28,09,19,26.50
2021,06,28,09,20,26.60
2021,06,28,09,21,26.60
2021,06,28,09,22,26.60
2021,06,28,09,23,26.70
2021,06,28,09,24,26.70
2021,06,28,09,25,26.80
2021,06,28,09,26,26.90
2021,06,28,09,27,26.90
2021,06,28,09,28,27.00
2021,06,28,09,29,27.00
2021,06,28,09,30,27.10
2021,06,28,09,31,27.10
2021,06,28,09,32,27.10
2021,06,28,09,33,27.20
2021,06,28,09,34,27.20
2021,06,28,09,35,27.20
2021,06,28,09,36,27.30
2021,06,28,09,37,27.30
2021,06,28,09,38,27.30
2021,06,28,09,39,27.30
2021,06,28,09,40,27.40
2021,06,28,09,41,27.40
2021,06,28,09,42,27.40
2021,06,28,09,43,27.40
2021,06,28,09,44,27.50
2021,06,28,09,45,27.50
2021,06,28,09,46,27.60
2021,06,28,09,47,27.60
2021,06,28,09,48,27.70
2021,06,28,09,49,27.70
2021,06,28,09,50,27.80
2021,06,28,09,51,27.80
2021,06,28,09,52,27.80
2021,06,28,09,53,27.90
2021,06,28,09,54,27.90
2021,06,28,09,55,28.00
2021,06,28,09,56,28.00
2021,06,28,09,57,28.10
2021,06,28,09,58,28.10
2021,06,28,09,59,28.10
2021,06,28,10,00,28.20
2021,06,28,10,01,28.20
2021,06,28,10,02,28.20
2021,06,28,10,03,28.30
2021,06,28,10,04,28.30
2021,06,28,10,05,28.30
2021,06,28,10,06,28.40
2021,06,28,10,07,28.40
2021,06,28,10,08,28.40
2021,06,28,10,09,28.40
2021,06,28,10,10,28.40
2021,06,28,10,11,28.50
2021,06,28,10,12,28.60
2021,06,28,10,13,28.60
2021,06,28,10,14,28.60
2021,06,28,10,15,28.70
2021,06,28,10,16,28.70
2021,06,28,10,17,28.80
2021,06,28,10,18,28.80
2021,06,28,10,19,28.90
2021,06,28,10,20,28.90
2021,06,28,10,21,29.00
2021,06,28,10,22,29.00
2021,06,28,10,23,29.00
2021,06,28,10,24,29.00
2021,06,28,10,25,29.10
2021,06,28,10,26,29.10
2021,06,28,10,27,29.10
2021,06,28,10,28,29.10
2021,06,28,10,29,29.10
2021,06,28,10,30,29.10
2021,06,28,10,31,29.20
2021,06,28,10,32,29.20
2021,06,28,10,33,29.20
2021,06,28,10,34,29.20
2021,06,28,10,35,29.30
2021,06,28,10,36,29.30
2021,06,28,10,37,29.30
2021,06,28,10,38,29.40
2021,06,28,10,39,29.40
2021,06,28,10,40,29.50
2021,06,28,10,41,29.50
2021,06,28,10,42,29.60
2021,06,28,10,43,29.70
2021,06,28,10,44,29.70
2021,06,28,10,45,29.80
2021,06,28,10,46,29.80
2021,06,28,10,47,29.90
2021,06,28,10,48,29.90
2021,06,28,10,49,29.90
2021,06,28,10,50,30.00
2021,06,28,10,51,30.10
2021,06,28,10,52,30.20
2021,06,28,10,53,30.20
2021,06,28,10,54,30.30
2021,06,28,10,55,30.40
2021,06,28,10,56,30.40
2021,06,28,10,57,30.40
2021,06,28,10,58,30.50
2021,06,28,10,59,30.60
2021,06,28,11,00,30.70
2021,06,28,11,01,30.70
2021,06,28,11,02,30.80
2021,06,28,11,03,30.80
2021,06,28,11,04,30.80
2021,06,28,11,05,30.90
2021,06,28,11,06,30.90
2021,06,28,11,07,30.90
2021,06,28,11,08,31.00
2021,06,28,11,09,31.00
2021,06,28,11,10,31.10
2021,06,28,11,11,31.10
2021,06,28,11,12,31.10
2021,06,28,11,13,31.20
2021,06,28,11,14,31.20
2021,06,28,11,15,31.30
2021,06,28,11,16,31.30
2021,06,28,11,17,31.40
2021,06,28,11,18,31.40
2021,06,28,11,19,31.40
2021,06,28,11,20,31.40
2021,06,28,11,21,31.50
2021,06,28,11,22,31.50
2021,06,28,11,23,31.60
2021,06,28,11,24,31.60
2021,06,28,11,25,31.60
2021,06,28,11,26,31.60
2021,06,28,11,27,31.70
2021,06,28,11,28,31.70
2021,06,28,11,29,31.70
2021,06,28,11,30,31.80
2021,06,28,11,31,31.80
2021,06,28,11,32,31.80
2021,06,28,11,33,31.80
2021,06,28,11,34,31.80
2021,06,28,11,35,31.90
2021,06,28,11,36,31.90
2021,06,28,11,37,31.90
2021,06,28,11,38,32.00
2021,06,28,11,39,32.00
2021,06,28,11,40,32.00
2021,06,28,11,41,32.10
2021,06,28,11,42,32.10
2021,06,28,11,43,32.10
2021,06,28,11,44,32.10
2021,06,28,11,45,32.10
2021,06,28,11,46,32.20
2021,06,28,11,47,32.20
2021,06,28,11,48,32.20
2021,06,28,11,49,32.20
2021,06,28,11,50,32.20
2021,06,28,11,51,32.20
2021,06,28,11,52,32.30
2021,06,28,11,53,32.30
2021,06,28,11,54,32.30
2021,06,28,11,55,32.30
2021,06,28,11,56,32.30
2021,06,28,11,57,32.30
2021,06,28,11,58,32.30
2021,06,28,11,59,32.40
2021,06,28,12,00,32.40
2021,06,28,12,01,32.40
2021,06,28,12,02,32.40
2021,06,28,12,03,32.40
2021,06,28,12,04,32.40
2021,06,28,12,05,32.50
2021,06,28,12,06,32.50
2021,06,28,12,07,32.50
2021,06,28,12,08,32.50
2021,06,28,12,09,32.50
2021,06,28,12,10,32.50
2021,06,28,12,11,32.50
2021,06,28,12,12,32.60
2021,06,28,12,13,32.60
2021,06,28,12,14,32.60
2021,06,28,12,15,32.60
2021,06,28,12,16,32.70
2021,06,28,12,17,32.70
2021,06,28,12,18,32.70
2021,06,28,12,19,32.80
2021,06,28,12,20,32.80
2021,06,28,12,21,32.80
2021,06,28,12,22,32.90
2021,06,28,12,23,32.90
2021,06,28,12,24,33.00
2021,06,28,12,25,33.00
2021,06,28,12,26,33.00
2021,06,28,12,27,33.10
2021,06,28,12,28,33.10
2021,06,28,12,29,33.20
2021,06,28,12,30,33.20
2021,06,28,12,31,33.20
2021,06,28,12,32,33.30
2021,06,28,12,33,33.30
2021,06,28,12,34,33.30
2021,06,28,12,35,33.30
2021,06,28,12,36,33.40
2021,06,28,12,37,33.40
2021,06,28,12,38,33.50
2021,06,28,12,39,33.50
2021,06,28,12,40,33.50
2021,06,28,12,41,33.60
2021,06,28,12,42,33.60
2021,06,28,12,43,33.60
2021,06,28,12,44,33.70
2021,06,28,12,45,33.70
2021,06,28,12,46,33.80
2021,06,28,12,47,33.80
2021,06,28,12,48,33.80
2021,06,28,12,49,33.90
2021,06,28,12,50,33.90
2021,06,28,12,51,33.90
2021,06,28,12,52,34.00
2021,06,28,12,53,34.10
2021,06,28,12,54,34.20
2021,06,28,12,55,34.20
2021,06,28,12,56,34.30
2021,06,28,12,57,34.30
2021,06,28,12,58,34.30
2021,06,28,12,59,34.40
2021,06,28,13,00,34.40
2021,06,28,13,01,34.40
2021,06,28,13,02,34.50
2021,06,28,13,03,34.50
2021,06,28,13,04,34.60
2021,06,28,13,05,34.60
2021,06,28,13,06,34.70
2021,06,28,13,07,34.70
2021,06,28,13,08,34.80
2021,06,28,13,09,34.80
2021,06,28,13,10,34.90
2021,06,28,13,11,34.90
2021,06,28,13,12,35.00
2021,06,28,13,13,35.10
2021,06,28,13,14,35.20
2021,06,28,13,15,35.20
2021,06,28,13,16,35.30
2021,06,28,13,17,35.30
2021,06,28,13,18,35.40
2021,06,28,13,19,35.40
2021,06,28,13,20,35.50
2021,06,28,13,21,35.50
2021,06,28,13,22,35.60
2021,06,28,13,23,35.60
2021,06,28,13,24,35.70
2021,06,28,13,25,35.70
2021,06,28,13,26,35.80
2021,06,28,13,27,35.80
2021,06,28,13,28,35.90
2021,06,28,13,29,36.00
2021,06,28,13,30,36.00
2021,06,28,13,31,36.10
2021,06,28,13,32,36.20
2021,06,28,13,33,36.30
2021,06,28,13,34,36.30
2021,06,28,13,35,36.40
2021,06,28,13,36,36.50
2021,06,28,13,37,36.60
2021,06,28,13,38,36.60
2021,06,28,13,39,36.70
2021,06,28,13,40,36.80
2021,06,28,13,41,36.80
2021,06,28,13,42,36.90
2021,06,28,13,43,36.90
2021,06,28,13,44,36.90
2021,06,28,13,45,36.90
2021,06,28,13,46,36.90
2021,06,28,13,47,36.90
2021,06,28,13,48,36.90
2021,06,28,13,49,37.00
2021,06,28,13,50,37.00
2021,06,28,13,51,37.10
2021,06,28,13,52,37.20
2021,06,28,13,53,37.20
2021,06,28,13,54,37.30
2021,06,28,13,55,37.30
2021,06,28,13,56,37.40
2021,06,28,13,57,37.50
2021,06,28,13,58,37.50
2021,06,28,13,59,37.50
2021,06,28,14,00,37.60
2021,06,28,14,01,37.60
2021,06,28,14,02,37.60
2021,06,28,14,03,37.60
2021,06,28,14,04,37.70
2021,06,28,14,05,37.70
2021,06,28,14,06,37.70
2021,06,28,14,07,37.70
2021,06,28,14,08,37.70
2021,06,28,14,09,37.60
2021,06,28,14,10,37.50
2021,06,28,14,11,37.50
2021,06,28,14,12,37.50
2021,06,28,14,13,37.50
2021,06,28,14,14,37.50
2021,06,28,14,15,37.50
2021,06,28,14,16,37.60
2021,06,28,14,17,37.60
2021,06,28,14,18,37.60
2021,06,28,14,19,37.60
2021,06,28,14,20,37.60
2021,06,28,14,21,37.60
2021,06,28,14,22,37.60
2021,06,28,14,23,37.70
2021,06,28,14,24,37.70
2021,06,28,14,25,37.70
2021,06,28,14,26,37.80
2021,06,28,14,27,37.80
2021,06,28,14,28,37.80
2021,06,28,14,29,37.80
2021,06,28,14,30,37.90
2021,06,28,14,31,37.90
2021,06,28,14,32,37.90
2021,06,28,14,33,38.00
2021,06,28,14,34,38.00
2021,06,28,14,35,38.00
2021,06,28,14,36,38.10
2021,06,28,14,37,38.10
2021,06,28,14,38,38.10
2021,06,28,14,39,38.10
2021,06,28,14,40,38.10
2021,06,28,14,41,38.20
2021,06,28,14,42,38.20
2021,06,28,14,43,38.20
2021,06,28,14,44,38.30
2021,06,28,14,45,38.30
2021,06,28,14,46,38.40
2021,06,28,14,47,38.40
2021,06,28,14,48,38.50
2021,06,28,14,49,38.60
2021,06,28,14,50,38.60
2021,06,28,14,51,38.60
2021,06,28,14,52,38.70
2021,06,28,14,53,38.70
2021,06,28,14,54,38.80
2021,06,28,14,55,38.80
2021,06,28,14,56,38.80
2021,06,28,14,57,38.80
2021,06,28,14,58,38.90
2021,06,28,14,59,38.90
2021,06,28,15,00,38.90
2021,06,28,15,01,39.00
2021,06,28,15,02,39.00
2021,06,28,15,03,39.10
2021,06,28,15,04,39.10
2021,06,28,15,05,39.10
2021,06,28,15,06,39.10
2021,06,28,15,07,39.10
2021,06,28,15,08,39.10
2021,06,28,15,09,39.20
2021,06,28,15,10,39.20
2021,06,28,15,11,39.20
2021,06,28,15,12,39.30
2021,06,28,15,13,39.20
2021,06,28,15,14,39.30
2021,06,28,15,15,39.30
2021,06,28,15,16,39.30
2021,06,28,15,17,39.30
2021,06,28,15,18,39.30
2021,06,28,15,19,39.40
2021,06,28,15,20,39.40
2021,06,28,15,21,39.40
2021,06,28,15,22,39.40
2021,06,28,15,23,39.40
2021,06,28,15,24,39.40
2021,06,28,15,25,39.50
2021,06,28,15,26,39.50
2021,06,28,15,27,39.60
2021,06,28,15,28,39.60
2021,06,28,15,29,39.60
2021,06,28,15,30,39.60
2021,06,28,15,31,39.60
2021,06,28,15,32,39.60
2021,06,28,15,33,39.60
2021,06,28,15,34,39.60
2021,06,28,15,35,39.60
2021,06,28,15,36,39.60
2021,06,28,15,37,39.60
2021,06,28,15,38,39.60
2021,06,28,15,39,39.60
2021,06,28,15,40,39.60
2021,06,28,15,41,39.70
2021,06,28,15,42,39.70
2021,06,28,15,43,39.80
2021,06,28,15,44,39.80
2021,06,28,15,45,39.80
2021,06,28,15,46,39.80
2021,06,28,15,47,39.80
2021,06,28,15,48,39.70
2021,06,28,15,49,39.70
2021,06,28,15,50,39.70
2021,06,28,15,51,39.70
2021,06,28,15,52,39.70
2021,06,28,15,53,39.70
2021,06,28,15,54,39.70
2021,06,28,15,55,39.80
2021,06,28,15,56,39.80
2021,06,28,15,57,39.80
2021,06,28,15,58,39.80
2021,06,28,15,59,39.80
2021,06,28,16,00,39.80
2021,06,28,16,01,39.80
2021,06,28,16,02,39.80
2021,06,28,16,03,39.80
2021,06,28,16,04,39.80
2021,06,28,16,05,39.80
2021,06,28,16,06,39.80
2021,06,28,16,07,39.80
2021,06,28,16,08,39.80
2021,06,28,16,09,39.70
2021,06,28,16,10,39.70
2021,06,28,16,11,39.70
2021,06,28,16,12,39.80
2021,06,28,16,13,39.80
2021,06,28,16,14,39.80
2021,06,28,16,15,39.80
2021,06,28,16,16,39.70
2021,06,28,16,17,39.70
2021,06,28,16,18,39.70
2021,06,28,16,19,39.60
2021,06,28,16,20,39.60
2021,06,28,16,21,39.60
2021,06,28,16,22,39.50
2021,06,28,16,23,39.50
2021,06,28,16,24,39.50
2021,06,28,16,25,39.50
2021,06,28,16,26,39.40
2021,06,28,16,27,39.40
2021,06,28,16,28,39.40
2021,06,28,16,29,39.40
2021,06,28,16,30,39.40
2021,06,28,16,31,39.40
2021,06,28,16,32,39.50
2021,06,28,16,33,39.50
2021,06,28,16,34,39.50
2021,06,28,16,35,39.60
2021,06,28,16,36,39.60
2021,06,28,16,37,39.60
2021,06,28,16,38,39.50
2021,06,28,16,39,39.60
2021,06,28,16,40,39.60
2021,06,28,16,41,39.60
2021,06,28,16,42,39.60
2021,06,28,16,43,39.60
2021,06,28,16,44,39.60
2021,06,28,16,45,39.70
2021,06,28,16,46,39.70
2021,06,28,16,47,39.70
2021,06,28,16,48,39.70
2021,06,28,16,49,39.70
2021,06,28,16,50,39.70
2021,06,28,16,51,39.60
2021,06,28,16,52,39.60
2021,06,28,16,53,39.60
2021,06,28,16,54,39.60
2021,06,28,16,55,39.60
2021,06,28,16,56,39.60
2021,06,28,16,57,39.60
2021,06,28,16,58,39.60
2021,06,28,16,59,39.60
2021,06,28,17,00,39.60
2021,06,28,17,01,39.60
2021,06,28,17,02,39.60
2021,06,28,17,03,39.60
2021,06,28,17,04,39.60
2021,06,28,17,05,39.60
2021,06,28,17,06,39.60
2021,06,28,17,07,39.60
2021,06,28,17,08,39.60
2021,06,28,17,09,39.70
2021,06,28,17,10,39.70
2021,06,28,17,11,39.70
2021,06,28,17,12,39.70
2021,06,28,17,13,39.70
2021,06,28,17,14,39.70
2021,06,28,17,15,39.70
2021,06,28,17,16,39.70
2021,06,28,17,17,39.80
2021,06,28,17,18,39.70
2021,06,28,17,19,39.80